TimeCST,TemperatureF,Dew PointF,Humidity,Sea Level PressureIn,VisibilityMPH,Wind Direction,Wind SpeedMPH,Gust SpeedMPH,PrecipitationIn,Events,Conditions,WindDirDegrees,DateUTC
12:53 AM,44.1,19.9,38,29.58,10.0,SW,17.3,-,N/A,,Clear,230,2014-01-12 06:53:00
1:53 AM,43.0,21.0,42,29.55,10.0,SW,6.9,-,N/A,,Clear,230,2014-01-12 07:53:00
2:53 AM,41.0,21.0,45,29.55,10.0,West,9.2,-,N/A,,Clear,260,2014-01-12 08:53:00
3:53 AM,37.9,21.9,53,29.54,10.0,West,9.2,-,N/A,,Clear,260,2014-01-12 09:53:00
4:53 AM,36.0,24.1,62,29.53,10.0,West,3.5,-,N/A,,Clear,260,2014-01-12 10:53:00
5:53 AM,33.1,23.0,66,29.54,10.0,WSW,6.9,-,N/A,,Clear,250,2014-01-12 11:53:00
6:53 AM,34.0,24.1,67,29.55,10.0,WSW,5.8,-,N/A,,Clear,240,2014-01-12 12:53:00
7:53 AM,36.0,25.0,64,29.55,10.0,SW,4.6,-,N/A,,Clear,230,2014-01-12 13:53:00
8:53 AM,36.0,26.1,67,29.55,10.0,WSW,8.1,-,N/A,,Clear,250,2014-01-12 14:53:00
9:53 AM,42.1,27.0,55,29.59,10.0,West,10.4,-,N/A,,Clear,270,2014-01-12 15:53:00
10:53 AM,46.0,28.0,50,29.59,10.0,WNW,12.7,-,N/A,,Clear,300,2014-01-12 16:53:00
11:53 AM,52.0,28.0,40,29.56,10.0,WNW,9.2,-,N/A,,Clear,300,2014-01-12 17:53:00
12:53 PM,53.1,28.0,38,29.57,10.0,WNW,12.7,21.9,N/A,,Clear,300,2014-01-12 18:53:00
1:53 PM,50.0,28.0,43,29.56,10.0,WNW,15.0,-,N/A,,Overcast,300,2014-01-12 19:53:00
2:53 PM,50.0,28.9,44,29.60,10.0,WNW,16.1,-,N/A,,Overcast,300,2014-01-12 20:53:00
3:53 PM,52.0,24.1,34,29.65,10.0,WNW,18.4,-,N/A,,Overcast,300,2014-01-12 21:53:00
4:53 PM,50.0,18.0,28,29.68,10.0,NW,13.8,-,N/A,,Overcast,310,2014-01-12 22:53:00
5:53 PM,46.0,18.0,33,29.70,10.0,WNW,9.2,-,N/A,,Mostly Cloudy,290,2014-01-12 23:53:00
6:53 PM,45.0,16.0,31,29.75,10.0,WNW,15.0,-,N/A,,Clear,290,2014-01-13 00:53:00
7:53 PM,44.1,17.1,34,29.78,10.0,WNW,18.4,-,N/A,,Clear,300,2014-01-13 01:53:00
8:53 PM,37.9,18.0,45,29.82,10.0,NW,15.0,-,N/A,,Clear,310,2014-01-13 02:53:00
9:53 PM,36.0,19.9,52,29.83,10.0,NW,17.3,-,N/A,,Clear,310,2014-01-13 03:53:00
10:53 PM,33.1,21.0,61,29.85,10.0,NW,12.7,-,N/A,,Clear,310,2014-01-13 04:53:00
11:53 PM,35.1,23.0,61,29.85,10.0,WNW,15.0,-,N/A,,Clear,290,2014-01-13 05:53:00